Hourly Weather Sveti Vlas

Today, 5 August, Thursday

Time Temperature Precipitation Wind Pressure Humidity
00:00 +25°C° 0 mm 2 mps 754 mmHg 93%
01:00 +24°C° 0 mm 1 mps 754 mmHg 93%
02:00 +24°C° 0 mm 1 mps 754 mmHg 93%
03:00 +24°C° 0 mm 1 mps 754 mmHg 93%
04:00 +24°C° 0 mm 1 mps 753 mmHg 93%
05:00 +24°C° 0 mm 1 mps 753 mmHg 93%
06:00 +26°C° 0 mm 2 mps 753 mmHg 83%
07:00 +28°C° 0 mm 2 mps 753 mmHg 73%
08:00 +30°C° 0 mm 2 mps 753 mmHg 63%
09:00 +31°C° 0 mm 3 mps 753 mmHg 55%
10:00 +34°C° 0 mm 4 mps 752 mmHg 48%
11:00 +36°C° 0 mm 5 mps 752 mmHg 40%
12:00 +36°C° 0 mm 5 mps 752 mmHg 42%
13:00 +36°C° 0 mm 6 mps 751 mmHg 43%
14:00 +36°C° 0 mm 6 mps 751 mmHg 44%
15:00 +35°C° 0 mm 7 mps 750 mmHg 47%
16:00 +35°C° 0 mm 7 mps 749 mmHg 49%
17:00 +34°C° 0 mm 7 mps 749 mmHg 51%
18:00 +32°C° 0 mm 7 mps 749 mmHg 61%
19:00 +29°C° 0 mm 7 mps 748 mmHg 70%
20:00 +27°C° 0 mm 7 mps 748 mmHg 80%
21:00 +27°C° 0 mm 6 mps 748 mmHg 81%
22:00 +27°C° 0 mm 6 mps 748 mmHg 82%
23:00 +26°C° 0 mm 5 mps 748 mmHg 84%

Tomorrow, 6 August, Friday

Time Temperature Precipitation Wind Pressure Humidity
00:00 +26°C° 0 mm 5 mps 747 mmHg 84%
01:00 +26°C° 0 mm 4 mps 747 mmHg 83%
02:00 +25°C° 0 mm 3 mps 747 mmHg 83%
03:00 +25°C° 0 mm 3 mps 746 mmHg 85%
04:00 +25°C° 0 mm 3 mps 746 mmHg 86%
05:00 +25°C° 0 mm 2 mps 746 mmHg 87%
06:00 +27°C° 0 mm 2 mps 746 mmHg 77%
07:00 +28°C° 0 mm 2 mps 746 mmHg 67%
08:00 +30°C° 0 mm 2 mps 746 mmHg 56%
09:00 +31°C° 0 mm 2 mps 746 mmHg 49%
10:00 +33°C° 0 mm 3 mps 746 mmHg 41%
11:00 +35°C° 0 mm 4 mps 746 mmHg 34%
12:00 +35°C° 0 mm 4 mps 746 mmHg 35%
13:00 +35°C° 0 mm 5 mps 745 mmHg 37%
14:00 +35°C° 0 mm 6 mps 745 mmHg 38%
15:00 +35°C° 0 mm 5 mps 745 mmHg 39%
16:00 +34°C° 0 mm 4 mps 745 mmHg 40%
17:00 +34°C° 0 mm 3 mps 745 mmHg 41%
18:00 +31°C° 0.2 mm 3 mps 746 mmHg 49%
19:00 +28°C° 0.2 mm 3 mps 746 mmHg 56%
20:00 +26°C° 0.2 mm 4 mps 747 mmHg 64%
21:00 +25°C° 0.2 mm 4 mps 747 mmHg 66%
22:00 +23°C° 0.2 mm 5 mps 747 mmHg 69%
23:00 +22°C° 0.2 mm 5 mps 747 mmHg 71%

Day after tomorrow, 7 August, Saturday

Time Temperature Precipitation Wind Pressure Humidity
00:00 +23°C° 0 mm 6 mps 747 mmHg 68%
01:00 +23°C° 0 mm 6 mps 747 mmHg 64%
02:00 +23°C° 0 mm 7 mps 747 mmHg 61%
03:00 +23°C° 0 mm 7 mps 747 mmHg 62%
04:00 +22°C° 0 mm 7 mps 747 mmHg 62%
05:00 +22°C° 0 mm 7 mps 748 mmHg 63%
06:00 +23°C° 0 mm 7 mps 748 mmHg 58%
07:00 +26°C° 0 mm 7 mps 749 mmHg 54%
08:00 +27°C° 0 mm 6 mps 749 mmHg 49%
09:00 +29°C° 0 mm 6 mps 750 mmHg 45%
10:00 +30°C° 0 mm 6 mps 750 mmHg 41%
11:00 +33°C° 0 mm 6 mps 750 mmHg 36%
12:00 +33°C° 0 mm 6 mps 750 mmHg 37%
13:00 +33°C° 0 mm 6 mps 751 mmHg 38%
14:00 +33°C° 0 mm 6 mps 751 mmHg 38%
15:00 +32°C° 0 mm 6 mps 751 mmHg 43%
16:00 +30°C° 0 mm 6 mps 751 mmHg 48%
17:00 +29°C° 0 mm 6 mps 752 mmHg 53%
18:00 +28°C° 0 mm 5 mps 752 mmHg 59%
19:00 +26°C° 0 mm 4 mps 752 mmHg 65%
20:00 +25°C° 0 mm 3 mps 753 mmHg 72%
21:00 +24°C° 0 mm 3 mps 753 mmHg 73%
22:00 +22°C° 0 mm 3 mps 753 mmHg 75%
23:00 +23°C° 0 mm 2 mps 753 mmHg 76%

8 August, Sunday

Time Temperature Precipitation Wind Pressure Humidity
00:00 +21°C° 0 mm 2 mps 753 mmHg 77%
01:00 +21°C° 0 mm 3 mps 754 mmHg 77%
02:00 +21°C° 0 mm 3 mps 754 mmHg 77%
03:00 +20°C° 0 mm 3 mps 754 mmHg 76%
04:00 +20°C° 0 mm 3 mps 754 mmHg 75%
05:00 +19°C° 0 mm 3 mps 754 mmHg 73%
06:00 +22°C° 0 mm 3 mps 754 mmHg 61%
07:00 +25°C° 0 mm 3 mps 755 mmHg 49%
08:00 +27°C° 0 mm 3 mps 755 mmHg 37%
09:00 +29°C° 0 mm 3 mps 755 mmHg 34%
10:00 +32°C° 0 mm 4 mps 755 mmHg 31%
11:00 +33°C° 0 mm 4 mps 755 mmHg 28%
12:00 +34°C° 0 mm 4 mps 755 mmHg 29%
13:00 +34°C° 0 mm 4 mps 755 mmHg 31%
14:00 +34°C° 0 mm 4 mps 755 mmHg 32%
15:00 +33°C° 0 mm 4 mps 755 mmHg 35%
16:00 +32°C° 0 mm 4 mps 755 mmHg 38%
17:00 +30°C° 0 mm 4 mps 755 mmHg 41%
18:00 +28°C° 0 mm 4 mps 755 mmHg 49%
19:00 +26°C° 0 mm 3 mps 755 mmHg 58%
20:00 +24°C° 0 mm 2 mps 755 mmHg 66%
21:00 +23°C° 0 mm 2 mps 755 mmHg 67%
22:00 +23°C° 0 mm 1 mps 756 mmHg 69%
23:00 +22°C° 0 mm 1 mps 756 mmHg 70%

9 August, Monday

Time Temperature Precipitation Wind Pressure Humidity
00:00 +22°C° 0 mm 1 mps 756 mmHg 70%
01:00 +22°C° 0 mm 1 mps 755 mmHg 69%
02:00 +22°C° 0 mm 1 mps 755 mmHg 69%
03:00 +22°C° 0 mm 1 mps 755 mmHg 67%
04:00 +21°C° 0 mm 1 mps 755 mmHg 65%
05:00 +20°C° 0 mm 2 mps 755 mmHg 64%
06:00 +24°C° 0 mm 1 mps 755 mmHg 54%
07:00 +27°C° 0 mm 1 mps 755 mmHg 44%
08:00 +30°C° 0 mm 1 mps 755 mmHg 34%
09:00 +31°C° 0 mm 1 mps 755 mmHg 31%
10:00 +32°C° 0 mm 2 mps 755 mmHg 29%
11:00 +35°C° 0 mm 3 mps 755 mmHg 26%
12:00 +35°C° 0 mm 3 mps 755 mmHg 26%
13:00 +35°C° 0 mm 4 mps 755 mmHg 27%
14:00 +35°C° 0 mm 4 mps 755 mmHg 27%
15:00 +35°C° 0 mm 4 mps 755 mmHg 28%
16:00 +34°C° 0 mm 4 mps 755 mmHg 29%
17:00 +33°C° 0 mm 4 mps 755 mmHg 30%
18:00 +30°C° 0 mm 3 mps 755 mmHg 42%
19:00 +27°C° 0 mm 3 mps 755 mmHg 53%
20:00 +25°C° 0 mm 2 mps 755 mmHg 64%
21:00 +24°C° 0 mm 1 mps 755 mmHg 65%
22:00 +24°C° 0 mm 1 mps 755 mmHg 65%
23:00 +24°C° 0 mm 1 mps 755 mmHg 66%

10 August, Tuesday

Time Temperature Precipitation Wind Pressure Humidity
00:00 +23°C° 0 mm 1 mps 755 mmHg 65%
01:00 +23°C° 0 mm 1 mps 755 mmHg 64%
02:00 +23°C° 0 mm 1 mps 755 mmHg 63%
03:00 +23°C° 0 mm 1 mps 755 mmHg 61%
04:00 +22°C° 0 mm 1 mps 755 mmHg 60%
05:00 +22°C° 0 mm 1 mps 755 mmHg 58%
06:00 +25°C° 0 mm 2 mps 755 mmHg 51%
07:00 +27°C° 0 mm 2 mps 755 mmHg 43%
08:00 +29°C° 0 mm 2 mps 755 mmHg 36%
09:00 +31°C° 0 mm 3 mps 755 mmHg 32%
10:00 +34°C° 0 mm 3 mps 755 mmHg 28%
11:00 +35°C° 0 mm 4 mps 755 mmHg 24%
12:00 +36°C° 0 mm 4 mps 755 mmHg 25%
13:00 +36°C° 0 mm 5 mps 754 mmHg 25%
14:00 +36°C° 0 mm 5 mps 754 mmHg 25%
15:00 +35°C° 0 mm 5 mps 754 mmHg 30%
16:00 +34°C° 0 mm 6 mps 754 mmHg 34%
17:00 +33°C° 0 mm 6 mps 754 mmHg 38%
18:00 +30°C° 0 mm 6 mps 754 mmHg 49%
19:00 +28°C° 0 mm 5 mps 754 mmHg 59%
20:00 +26°C° 0 mm 4 mps 754 mmHg 70%
21:00 +25°C° 0 mm 4 mps 754 mmHg 72%
22:00 +25°C° 0 mm 3 mps 755 mmHg 73%
23:00 +24°C° 0 mm 3 mps 755 mmHg 75%
Show more